Wind_Speed
20 19 19 18 19 19 20 22 15 15 16 15 16 12 7 30 7 6 6 5 10 9 15 14 14 16 16 17 19 16 19 23 25 26 30 27 25 22 20 20 19 20 21 22
21 21 20 23 19 22 19 20 20 18 19 16 16 7 3 24 9 11 10 9 10 14 17 15 15 16 20 23 24 19 19 22 23 21 17 14 15 17 17 17 15 14 15 17
16 17 14 21 19 17 17 19 13 16 12 10 14 8 22 27 15 16 12 8 9 13 18 20 18 21 20 19 19 17 18 18 14 13 14 16 16 16 14 13 12 11 12 12
7 1 21 11 14 16 16 15 16 18 15 13 14 17 13 3 3 9 11 13 13 15 17 20 20 19 20 18 20 20 17 16 17 17 15 14 13 13 13 13 12 10 10 9
4 14 17 17 17 12 13 17 20 22 18 17 20 21 4 5 7 10 16 19 19 19 21 22 24 23 24 23 22 21 19 17 15 14 13 13 12 12 11 10 10 9 7 6
3 11 16 6 12 18 15 16 14 13 13 13 15 5 5 14 11 16 20 20 21 22 23 24 24 25 26 23 22 20 19 17 16 14 12 13 13 12 12 12 12 11 9 8
8 7 5 7 13 22 19 8 9 13 15 15 3 2 7 10 17 20 23 24 24 24 25 25 25 25 25 24 22 20 18 17 16 16 15 12 11 12 12 10 7 7 7 5
5 4 11 8 9 15 8 29 13 16 15 8 5 4 9 23 25 25 25 25 26 26 25 24 24 25 24 23 21 21 21 20 18 14 11 10 11 12 10 10 11 6 7 6
6 3 19 31 20 22 16 15 15 17 12 12 7 13 20 25 26 27 27 28 26 26 26 24 22 23 23 23 23 23 20 16 13 15 15 14 12 12 11 10 12 12 9 8
2 7 17 30 22 17 20 19 23 18 13 12 10 19 23 25 27 29 29 29 27 26 25 24 22 22 24 24 21 18 19 19 19 18 17 14 14 13 14 13 11 9 9 10
12 13 17 31 21 16 18 15 17 16 13 10 12 24 27 27 29 29 29 28 27 27 25 23 22 22 18 17 19 21 21 21 20 19 17 18 15 13 12 8 9 10 11 12
5 12 3 6 21 15 15 18 21 16 14 15 15 19 23 26 27 27 28 27 25 24 25 23 20 19 18 18 19 21 21 19 18 19 14 7 8 8 7 8 9 9 9 11
5 14 21 18 22 17 12 16 17 18 12 14 11 14 21 23 26 26 25 25 24 24 23 23 21 19 17 17 18 20 20 18 18 16 15 14 11 6 6 8 9 9 10 11
12 10 10 6 7 12 14 12 8 15 11 13 14 16 20 22 23 24 25 23 24 25 25 24 25 23 22 22 22 18 14 13 12 11 10 9 10 11 12 11 9 10 11 15
14 10 9 12 13 12 13 10 12 12 8 10 12 19 22 24 23 20 19 21 24 26 24 24 23 18 16 17 17 17 16 13 10 7 6 7 8 9 9 8 8 8 8 10
14 10 10 10 10 9 9 9 8 4 1 5 12 16 19 21 22 24 25 27 28 23 23 23 22 21 18 15 14 10 6 3 5 6 6 7 7 8 8 9 9 8 9 12
15 16 16 14 10 8 9 7 3 4 7 12 16 24 28 31 31 31 30 30 30 25 19 18 19 17 13 9 11 9 6 6 5 5 7 7 8 9 10 10 10 10 11 17
9 9 8 10 9 8 8 8 6 8 11 14 19 23 26 27 31 29 27 22 20 21 19 15 14 13 11 7 4 3 4 5 6 7 9 10 10 11 12 12 12 12 13 15
10 10 10 11 12 12 12 12 10 10 13 14 18 22 24 24 23 21 18 18 21 21 16 13 11 8 6 2 1 3 4 7 8 10 10 12 11 11 13 12 14 16 15 14
21 19 19 20 19 20 21 19 18 16 17 17 22 24 23 23 23 24 22 19 14 13 10 7 4 2 1 3 6 7 8 8 9 11 13 13 12 14 15 12 14 14 13 15
28 28 28 28 27 25 23 21 21 23 22 21 22 25 26 23 18 15 12 13 11 7 4 2 1 3 4 5 8 9 11 12 13 12 12 13 13 13 12 14 14 15 16 16
32 34 33 33 34 33 30 29 28 27 27 26 23 23 21 17 13 11 10 8 7 4 3 4 5 6 8 9 9 10 11 11 12 12 11 12 14 14 15 14 16 17 17 19
34 33 33 33 33 32 30 28 27 26 25 22 20 17 16 14 10 9 9 7 5 2 4 6 7 9 9 9 10 10 10 13 11 12 14 14 14 16 17 16 17 18 18 16
29 29 29 28 27 28 29 25 24 22 20 18 16 15 13 9 9 8 5 3 3 4 8 9 10 11 11 10 10 11 11 12 12 12 13 15 14 15 16 17 19 19 18 20
26 25 25 26 26 24 22 20 21 19 16 16 14 12 9 7 6 6 6 5 4 4 9 14 14 14 10 10 11 12 13 14 15 17 16 14 14 15 17 18 18 21 21 24
22 22 22 20 20 18 16 15 15 17 16 14 13 12 11 9 7 8 10 8 9 9 9 9 14 15 14 14 15 14 13 14 16 16 16 18 18 18 17 17 20 21 22 23
19 18 17 19 18 16 14 13 13 13 11 11 8 7 6 6 6 5 5 7 9 7 9 12 12 13 14 16 16 15 16 15 15 17 19 19 18 18 18 19 20 22 23 22
Wind_Direction
243 241 241 221 232 237 220 227 227 225 244 258 261 189 194 241 74 142 177 233 204 207 172 182 179 178 183 182 192 191 187 201 203 213 222 222 227 231 239 244 245 240 237 239
247 254 242 266 239 230 229 238 246 248 250 241 266 148 271 267 215 189 229 233 218 204 175 173 178 173 181 187 190 188 150 178 196 206 219 227 224 224 224 221 228 233 230 233
239 237 250 260 249 246 240 238 252 254 265 258 265 236 200 225 214 239 202 191 203 203 169 168 172 180 175 190 189 178 167 178 187 187 176 176 190 205 213 219 219 219 218 225
223 240 234 255 251 254 261 269 273 278 265 260 250 265 271 302 97 167 172 180 183 179 167 166 170 165 168 161 162 173 175 174 171 183 190 192 193 194 195 197 196 200 195 200
219 229 252 248 243 250 251 256 249 247 257 260 253 249 152 174 198 193 184 176 174 173 167 163 164 161 158 157 156 158 161 162 170 176 173 178 182 183 179 178 176 177 173 180
253 218 234 221 250 236 246 257 269 266 266 260 252 181 223 167 171 167 167 170 169 168 163 159 158 160 157 156 155 156 158 162 165 168 167 168 164 165 162 156 148 161 196 204
259 242 270 205 222 246 250 241 247 332 256 256 298 322 156 172 168 170 167 166 167 165 164 163 162 161 157 158 160 162 159 153 151 166 181 183 168 160 156 167 175 160 137 158
217 244 246 285 302 232 249 233 259 286 278 301 301 146 184 173 169 172 172 172 168 166 167 166 166 166 161 160 159 155 158 164 172 179 165 145 137 133 139 148 178 180 183 167
242 260 316 300 257 280 286 292 274 299 247 270 215 179 180 174 176 177 175 172 171 171 167 166 166 168 159 158 166 171 172 171 162 138 141 149 151 147 153 174 175 197 207 196
65 271 276 274 321 272 281 302 304 285 289 249 222 184 180 179 179 178 179 176 174 172 168 165 167 168 177 178 175 162 158 157 152 153 154 151 167 162 195 199 203 211 218 216
225 235 255 287 289 292 323 309 306 288 295 281 250 188 184 185 183 181 181 180 177 171 167 165 169 178 180 162 160 161 160 158 167 164 164 167 184 194 210 218 227 233 243 245
228 259 247 318 315 316 284 290 314 285 275 273 262 196 192 189 185 183 184 178 173 170 167 163 165 159 160 165 169 167 164 173 167 165 156 170 200 215 241 251 255 254 256 264
268 254 260 262 277 309 289 289 309 292 269 264 233 213 198 189 185 183 182 175 171 169 165 161 157 156 161 167 170 174 177 176 173 171 176 185 187 230 270 269 282 284 284 281
345 327 268 302 306 287 295 288 261 259 253 261 230 203 191 182 178 180 174 169 170 165 158 159 160 159 162 163 169 175 168 147 166 177 188 189 201 210 209 236 269 301 308 315
1 350 324 314 315 311 308 311 300 299 268 255 215 181 176 166 164 157 159 166 161 155 155 159 158 148 165 171 166 154 162 175 187 198 218 225 231 235 236 247 250 248 261 293
341 344 356 340 326 331 334 337 331 304 185 167 150 149 150 142 147 159 160 157 146 136 143 144 144 142 157 158 153 152 147 184 229 237 227 237 245 246 254 259 262 268 267 259
6 12 5 355 357 18 23 19 28 108 130 140 139 152 160 163 156 148 145 150 150 144 146 154 142 134 133 160 181 188 191 219 233 236 248 256 260 263 265 269 272 272 272 280
34 42 38 41 58 86 83 82 104 134 144 142 151 158 151 151 139 136 138 146 148 143 144 152 164 172 170 170 180 213 242 259 266 272 279 276 274 272 272 275 277 277 271 270
40 46 48 63 66 85 83 87 89 111 124 139 152 143 140 134 131 134 142 147 149 151 147 156 157 156 169 178 236 274 286 285 284 282 279 283 284 279 280 285 281 282 283 288
71 72 77 80 82 81 83 88 97 102 105 119 121 120 118 122 130 135 142 134 135 143 147 148 154 146 98 291 302 309 303 289 286 287 289 291 287 280 291 289 295 300 290 287
79 81 81 80 80 81 88 92 99 100 103 111 115 114 112 113 116 121 122 118 108 109 119 120 47 6 356 335 309 304 302 302 297 293 289 293 293 294 289 283 285 285 286 282
85 86 87 87 87 88 87 90 93 97 97 99 104 104 104 98 99 99 89 86 97 75 37 16 7 339 330 324 315 315 312 307 300 303 297 290 287 288 288 284 282 283 281 283
87 88 88 86 87 89 90 89 91 93 93 92 89 88 89 88 73 63 65 63 60 71 334 341 339 331 328 330 323 321 313 308 311 304 301 301 298 290 291 291 290 292 297 294
82 81 81 84 85 82 78 77 79 80 82 83 83 84 72 59 66 61 64 52 36 337 339 336 333 329 331 334 326 317 314 310 310 308 292 282 287 293 291 291 296 297 294 291
86 87 83 75 71 72 76 76 70 59 59 61 58 58 67 75 64 45 26 20 43 33 336 332 337 343 346 338 329 319 319 317 307 308 316 314 308 299 297 298 295 295 293 295
68 69 70 74 78 77 70 64 74 81 66 46 46 43 39 42 42 22 17 16 0 355 344 341 339 345 337 323 319 319 319 314 310 307 299 299 298 300 301 294 291 293 290 288
82 72 63 64 56 54 54 69 69 45 71 67 52 35 41 37 29 13 1 341 342 336 324 327 330 325 328 327 334 327 321 315 305 303 305 302 299 298 298 295 291 288 292 298
Height
1413 1410 1410 1413 1415 1415 1420 1424 1428 1426 1423 1417 1414 1417 1424 1426 1417 1421 1424 1428 1430 1434 1437 1442 1444 1446 1449 1452 1455 1457 1461 1464 1467 1470 1474 1477 1479 1481 1483 1485 1486 1487 1489 1490
1415 1410 1408 1412 1404 1406 1407 1410 1409 1410 1412 1406 1407 1411 1416 1422 1417 1420 1424 1426 1429 1431 1434 1439 1443 1446 1447 1448 1451 1453 1456 1460 1463 1468 1470 1472 1474 1476 1477 1478 1481 1483 1485 1487
1419 1411 1414 1420 1407 1401 1401 1400 1402 1410 1404 1401 1403 1404 1408 1407 1408 1414 1418 1423 1428 1431 1431 1435 1440 1442 1444 1446 1449 1452 1455 1457 1461 1464 1466 1469 1470 1471 1474 1476 1478 1480 1482 1485
1420 1425 1429 1400 1396 1395 1397 1398 1396 1397 1396 1396 1398 1400 1400 1403 1408 1412 1415 1421 1426 1430 1431 1434 1437 1441 1443 1447 1449 1450 1453 1456 1459 1461 1463 1465 1468 1469 1472 1473 1475 1477 1480 1483
1419 1419 1408 1396 1396 1397 1398 1401 1394 1394 1393 1392 1393 1395 1399 1404 1407 1409 1413 1418 1423 1427 1430 1433 1435 1438 1442 1445 1447 1449 1452 1454 1457 1459 1461 1463 1465 1467 1469 1471 1473 1476 1478 1481
1417 1417 1418 1398 1394 1390 1392 1402 1388 1388 1388 1388 1389 1401 1397 1400 1405 1407 1411 1417 1421 1426 1429 1432 1434 1437 1440 1444 1446 1448 1450 1453 1456 1458 1460 1461 1463 1465 1468 1470 1473 1475 1477 1478
1418 1416 1401 1388 1388 1389 1405 1403 1385 1384 1383 1384 1386 1388 1391 1396 1404 1408 1412 1415 1419 1424 1427 1430 1433 1435 1438 1440 1442 1445 1448 1451 1454 1456 1458 1460 1462 1465 1468 1470 1472 1474 1476 1478
1415 1414 1413 1380 1383 1389 1385 1380 1382 1384 1383 1383 1385 1387 1390 1395 1401 1406 1410 1414 1418 1422 1426 1429 1431 1433 1434 1437 1440 1443 1446 1449 1452 1454 1456 1459 1462 1465 1468 1470 1472 1473 1474 1476
1411 1396 1390 1393 1383 1381 1378 1379 1382 1382 1383 1382 1383 1387 1390 1394 1398 1404 1409 1412 1417 1421 1423 1426 1429 1432 1433 1436 1437 1439 1442 1446 1449 1453 1457 1460 1463 1466 1468 1468 1469 1470 1471 1473
1403 1391 1391 1392 1382 1381 1382 1382 1381 1379 1378 1379 1381 1384 1389 1393 1397 1401 1405 1409 1413 1417 1422 1425 1428 1430 1431 1432 1434 1437 1441 1444 1447 1450 1454 1457 1460 1462 1462 1463 1464 1466 1467 1468
1390 1385 1383 1380 1379 1379 1380 1379 1378 1378 1379 1379 1380 1380 1384 1390 1394 1398 1403 1407 1410 1413 1418 1424 1428 1428 1431 1434 1437 1438 1440 1442 1444 1448 1450 1452 1454 1456 1458 1460 1461 1460 1461 1461
1384 1382 1383 1383 1381 1380 1381 1378 1376 1375 1377 1378 1379 1380 1384 1388 1392 1397 1403 1406 1409 1413 1415 1420 1425 1430 1433 1435 1437 1437 1439 1440 1442 1445 1448 1449 1452 1454 1455 1456 1457 1457 1458 1456
1375 1378 1379 1380 1378 1378 1377 1376 1373 1376 1375 1376 1377 1380 1383 1387 1391 1396 1401 1405 1409 1412 1415 1418 1422 1427 1431 1433 1434 1435 1436 1437 1440 1441 1443 1445 1448 1450 1452 1452 1451 1453 1452 1452
1373 1372 1373 1374 1374 1374 1375 1375 1375 1374 1371 1373 1375 1377 1382 1387 1392 1396 1399 1404 1407 1411 1414 1417 1419 1421 1424 1427 1429 1433 1437 1439 1441 1442 1442 1443 1445 1447 1448 1450 1448 1448 1448 1445
1376 1376 1376 1375 1376 1376 1375 1373 1370 1369 1370 1372 1373 1374 1379 1383 1390 1396 1402 1406 1408 1411 1413 1414 1416 1421 1424 1428 1431 1433 1434 1437 1439 1441 1443 1444 1444 1445 1445 1445 1446 1446 1446 1444
1377 1376 1374 1374 1374 1375 1373 1371 1371 1372 1373 1372 1373 1378 1382 1386 1393 1394 1397 1403 1408 1414 1416 1418 1422 1424 1426 1428 1430 1433 1436 1437 1438 1440 1441 1441 1442 1443 1443 1442 1442 1441 1441 1440
1379 1375 1375 1374 1373 1373 1373 1374 1374 1374 1374 1373 1374 1374 1377 1379 1384 1391 1397 1400 1404 1412 1419 1424 1427 1430 1431 1430 1430 1433 1436 1438 1438 1439 1438 1439 1439 1439 1439 1438 1437 1436 1436 1434
1381 1378 1378 1378 1377 1374 1374 1376 1377 1376 1375 1376 1378 1379 1380 1387 1388 1396 1400 1406 1411 1416 1421 1425 1427 1428 1429 1430 1430 1432 1435 1436 1437 1436 1437 1436 1436 1435 1434 1433 1432 1431 1431 1431
1381 1380 1380 1378 1378 1376 1377 1378 1379 1382 1381 1384 1384 1385 1390 1395 1398 1403 1409 1413 1414 1417 1420 1423 1426 1428 1429 1431 1433 1433 1434 1435 1435 1434 1433 1433 1432 1431 1429 1428 1427 1426 1426 1425
1385 1384 1383 1382 1383 1381 1381 1384 1384 1389 1389 1391 1395 1395 1397 1403 1407 1411 1414 1416 1419 1420 1424 1426 1428 1429 1430 1431 1431 1431 1431 1431 1432 1430 1429 1429 1428 1426 1425 1424 1423 1422 1422 1421
1394 1393 1391 1390 1390 1391 1393 1392 1395 1396 1398 1400 1404 1406 1408 1412 1416 1420 1422 1423 1425 1426 1427 1428 1429 1429 1430 1431 1431 1430 1429 1427 1427 1427 1426 1425 1424 1422 1422 1421 1420 1418 1417 1416
1402 1401 1401 1401 1401 1403 1403 1404 1405 1408 1409 1411 1418 1416 1418 1421 1424 1425 1427 1428 1429 1429 1428 1429 1429 1430 1430 1430 1429 1427 1426 1426 1425 1424 1423 1421 1420 1419 1418 1417 1415 1414 1412 1410
1411 1412 1412 1412 1412 1413 1414 1415 1416 1417 1419 1422 1423 1423 1425 1426 1429 1429 1430 1431 1432 1432 1430 1430 1429 1429 1429 1428 1427 1426 1425 1424 1422 1421 1420 1419 1417 1416 1414 1413 1411 1408 1407 1405
1421 1421 1422 1423 1423 1422 1422 1425 1425 1426 1426 1428 1428 1429 1430 1430 1432 1432 1433 1433 1434 1433 1432 1430 1429 1428 1428 1426 1425 1424 1422 1421 1420 1418 1417 1415 1414 1412 1410 1408 1406 1404 1402 1400
1428 1428 1428 1429 1429 1431 1432 1433 1432 1432 1432 1432 1432 1433 1433 1434 1434 1435 1434 1435 1435 1434 1431 1430 1428 1427 1426 1425 1424 1422 1420 1418 1417 1415 1413 1411 1410 1408 1406 1404 1402 1399 1397 1394
1435 1434 1434 1434 1435 1436 1436 1436 1436 1437 1437 1437 1437 1437 1437 1437 1437 1437 1436 1435 1434 1433 1432 1430 1428 1426 1424 1422 1421 1419 1417 1416 1414 1412 1410 1407 1405 1403 1401 1399 1396 1394 1391 1388
1440 1441 1441 1440 1440 1440 1440 1439 1440 1440 1440 1440 1440 1440 1439 1438 1438 1437 1436 1435 1433 1432 1430 1428 1427 1424 1423 1420 1418 1417 1414 1412 1410 1407 1405 1403 1400 1398 1396 1393 1391 1388 1385 1383